Oak Island, MN

9:32 AM CST on February 19, 2017 (GMT -0600)
Flag Island

Weather History for KFGN - July, 2013

Change the Weather History Date:

Wednesday, July 24, 2013

  Actual Average Record
Temperature  
Mean Temperature 66 °F -  
Max Temperature 71 °F 71 °F 86 °F (2005)
Min Temperature 60 °F 58 °F 50 °F (1998)
Growing Degree Days 16 (Base 50)    
Moisture  
Dew Point 56 °F    
Average Humidity 72    
Maximum Humidity 88    
Minimum Humidity 56    
Precipitation  
Precipitation 0.08 in - - ()
Sea Level Pressure  
Sea Level Pressure 29.94 in    
Wind  
Wind Speed 8 mph (WSW)    
Max Wind Speed 17 mph    
Max Gust Speed 20 mph    
Visibility 9 miles    
Events Rain , Thunderstorm    
Averages and records for this station are not official NWS values.
T = Trace of Precipitation, MM = Missing Value Source: NWS Daily Summary

Daily Weather History Graph

Daily Weather History Graph

Search for Another Location

Airport or City:

Trip Planner

Search our weather history database for the weather conditions in past years. The results will help you decide how hot, cold, wet, or windy it might be!

Date:

Astronomy

Jul. 24, 2013 Rise Set
Actual Time 5:41 AM CDT 9:10 PM CDT
Civil Twilight 5:01 AM CDT 9:49 PM CDT
Nautical Twilight 4:09 AM CDT 10:41 PM CDT
Astronomical Twilight 2:56 AM CDT 11:52 PM CDT
Moon 9:54 PM CDT (7/24) 8:20 AM CDT (7/24)
Length of Visible Light 16h 47m
Length of Day
15h 29m
Waning Gibbous, 94% of the Moon is Illuminated
Jul 24
Waning Gibbous
Jul 29
Last Quarter
Aug 6
New
Aug 14
First Quarter
Aug 20
Full

Hourly Weather History & Observations

Time (CDT) Temp. Dew Point Humidity Pressure Visibility Wind Dir Wind Speed Gust Speed Precip Events Conditions
12:13 AM 62.6 °F 53.6 °F 72% 30.02 in 7.0 mi West 10.4 mph - N/A   Scattered Clouds
12:33 AM 62.6 °F 55.4 °F 77% 30.02 in 10.0 mi West 9.2 mph - N/A   Mostly Cloudy
12:54 AM 62.6 °F 55.4 °F 77% 30.01 in 10.0 mi WNW 8.1 mph - N/A   Overcast
1:13 AM 62.6 °F 55.4 °F 77% 30.01 in 10.0 mi WNW 6.9 mph - N/A   Overcast
1:33 AM 62.6 °F 53.6 °F 72% 30.01 in 10.0 mi West 5.8 mph - N/A   Overcast
1:53 AM 64.4 °F 53.6 °F 68% 30.01 in 10.0 mi West 8.1 mph - N/A   Mostly Cloudy
2:13 AM 64.4 °F 53.6 °F 68% 30.00 in 10.0 mi West 4.6 mph - N/A Rain Light Rain
2:33 AM 64.4 °F 51.8 °F 64% 30.00 in 10.0 mi WNW 3.5 mph - N/A Rain Light Rain
2:53 AM 64.4 °F 51.8 °F 64% 29.99 in 10.0 mi WNW 5.8 mph - N/A   Overcast
3:14 AM 64.4 °F 51.8 °F 64% 29.99 in 10.0 mi West 8.1 mph - N/A   Overcast
3:33 AM 64.4 °F 51.8 °F 64% 29.99 in 10.0 mi West 8.1 mph - N/A   Overcast
3:54 AM 62.6 °F 51.8 °F 68% 30.00 in 10.0 mi West 6.9 mph - N/A   Overcast
4:13 AM 62.6 °F 51.8 °F 68% 30.00 in 10.0 mi WNW 8.1 mph - N/A   Overcast
4:33 AM 62.6 °F 51.8 °F 68% 30.00 in 10.0 mi West 6.9 mph - N/A   Scattered Clouds
4:54 AM 60.8 °F 53.6 °F 77% 30.00 in 10.0 mi WNW 5.8 mph - N/A   Clear
5:13 AM 62.6 °F 53.6 °F 72% 30.00 in 10.0 mi West 9.2 mph - N/A   Clear
5:33 AM 60.8 °F 53.6 °F 77% 30.00 in 10.0 mi West 8.1 mph - N/A   Clear
5:54 AM 60.8 °F 53.6 °F 77% 30.00 in 10.0 mi WSW 5.8 mph - N/A   Clear
6:13 AM 60.8 °F 53.6 °F 77% 30.00 in 10.0 mi SW 6.9 mph - N/A   Clear
6:33 AM 60.8 °F 53.6 °F 77% 30.00 in 10.0 mi SW 5.8 mph - N/A   Clear
6:54 AM 60.8 °F 53.6 °F 77% 30.00 in 10.0 mi SW 6.9 mph - N/A   Clear
7:13 AM 60.8 °F 53.6 °F 77% 30.00 in 10.0 mi SW 8.1 mph - N/A   Clear
7:33 AM 60.8 °F 53.6 °F 77% 30.00 in 10.0 mi SW 8.1 mph - N/A   Clear
7:54 AM 62.6 °F 55.4 °F 77% 30.01 in 10.0 mi SW 9.2 mph - N/A   Clear
8:13 AM 62.6 °F 53.6 °F 72% 30.00 in 10.0 mi WSW 8.1 mph - N/A   Clear
8:34 AM 64.4 °F 55.4 °F 73% 30.00 in 10.0 mi SW 6.9 mph - N/A   Clear
8:53 AM 64.4 °F 55.4 °F 73% 29.99 in 10.0 mi SW 9.2 mph - N/A   Clear
9:13 AM 66.2 °F 55.4 °F 68% 30.00 in 10.0 mi SSW 6.9 mph - N/A   Clear
9:33 AM 66.2 °F 53.6 °F 64% 29.99 in 10.0 mi SSW 8.1 mph - N/A   Scattered Clouds
9:53 AM 66.2 °F 55.4 °F 68% 29.99 in 10.0 mi SW 8.1 mph - N/A   Scattered Clouds
10:13 AM 68.0 °F 55.4 °F 64% 29.98 in 10.0 mi SW 5.8 mph - N/A   Clear
10:33 AM 69.8 °F 53.6 °F 56% 29.97 in 10.0 mi SW 8.1 mph - N/A   Clear
10:54 AM 69.8 °F 53.6 °F 56% 29.96 in 10.0 mi South 4.6 mph - N/A   Clear
11:13 AM 69.8 °F 57.2 °F 64% 29.96 in 10.0 mi SSW 8.1 mph - N/A   Scattered Clouds
11:33 AM 69.8 °F 59.0 °F 68% 29.95 in 10.0 mi South 11.5 mph - N/A   Scattered Clouds
11:53 AM 71.6 °F 57.2 °F 60% 29.95 in 10.0 mi SSW 9.2 mph - N/A   Mostly Cloudy
12:13 PM 69.8 °F 53.6 °F 56% 29.95 in 10.0 mi SSW 10.4 mph 17.3 mph N/A   Scattered Clouds
12:33 PM 69.8 °F 53.6 °F 56% 29.94 in 10.0 mi SW 8.1 mph - N/A   Scattered Clouds
12:54 PM 69.8 °F 55.4 °F 60% 29.93 in 10.0 mi SSW 11.5 mph - N/A   Mostly Cloudy
1:13 PM 69.8 °F 55.4 °F 60% 29.92 in 10.0 mi SW 13.8 mph 19.6 mph N/A   Mostly Cloudy
1:23 PM 69.8 °F 55.4 °F 60% 29.92 in 10.0 mi SSW 10.4 mph - N/A   Mostly Cloudy
1:39 PM 69.8 °F 57.2 °F 64% 29.92 in 7.0 mi SW 8.1 mph 11.5 mph N/A Rain Light Rain
2:01 PM 69.8 °F 55.4 °F 60% 29.91 in 10.0 mi SW 15.0 mph - N/A   Scattered Clouds
2:37 PM 69.8 °F 55.4 °F 60% 29.91 in 10.0 mi SW 16.1 mph - N/A   Mostly Cloudy
2:39 PM 69.8 °F 55.4 °F 60% 29.91 in 10.0 mi SW 16.1 mph - N/A   Mostly Cloudy
2:53 PM 68.0 °F 55.4 °F 64% 29.90 in 10.0 mi SSW 16.1 mph - N/A   Mostly Cloudy
3:13 PM 69.8 °F 55.4 °F 60% 29.89 in 10.0 mi SSW 13.8 mph - N/A   Scattered Clouds
3:34 PM 69.8 °F 55.4 °F 60% 29.89 in 10.0 mi SSW 17.3 mph - N/A   Clear
4:13 PM 69.8 °F 57.2 °F 64% 29.88 in 10.0 mi SSW 8.1 mph - N/A   Clear
4:33 PM 69.8 °F 57.2 °F 64% 29.88 in 10.0 mi SSW 11.5 mph - N/A   Clear
4:53 PM 69.8 °F 57.2 °F 64% 29.88 in 10.0 mi SW 15.0 mph - N/A Thunderstorm Clear
5:13 PM 66.2 °F 57.2 °F 73% 29.88 in 10.0 mi SW 12.7 mph - N/A Rain Light Rain
5:33 PM 66.2 °F 59.0 °F 78% 29.89 in 7.0 mi SW 8.1 mph - 0.03 in Rain Light Rain
5:53 PM 64.4 °F 59.0 °F 83% 29.88 in 10.0 mi SSW 4.6 mph - 0.08 in Rain Light Rain
6:14 PM 66.2 °F 60.8 °F 83% 29.87 in 10.0 mi SSW 8.1 mph - N/A   Mostly Cloudy
6:33 PM 66.2 °F 60.8 °F 83% 29.87 in 10.0 mi SSW 4.6 mph - N/A   Scattered Clouds
6:46 PM 66.2 °F 62.6 °F 88% 29.87 in 7.0 mi SW 3.5 mph - N/A   Clear
7:21 PM 68.0 °F 60.8 °F 78% 29.87 in 2.5 mi WNW 8.1 mph - N/A   Clear
7:36 PM 68.0 °F 60.8 °F 78% 29.86 in 4.0 mi West 6.9 mph - N/A   Haze
7:53 PM 68.0 °F 60.8 °F 78% 29.86 in 7.0 mi WSW 4.6 mph - N/A   Clear
8:13 PM 68.0 °F 59.0 °F 73% 29.86 in 10.0 mi West 3.5 mph - N/A   Scattered Clouds
8:34 PM 66.2 °F 59.0 °F 78% 29.87 in 10.0 mi West 8.1 mph - N/A   Scattered Clouds
8:53 PM 66.2 °F 60.8 °F 83% 29.86 in 10.0 mi West 8.1 mph - N/A   Scattered Clouds
9:13 PM 66.2 °F 60.8 °F 83% 29.86 in 10.0 mi WNW 8.1 mph - N/A   Scattered Clouds
9:33 PM 66.2 °F 60.8 °F 83% 29.88 in 10.0 mi NW 8.1 mph - N/A   Scattered Clouds
9:54 PM 66.2 °F 60.8 °F 83% 29.88 in 10.0 mi NNW 11.5 mph - N/A   Clear
10:13 PM 64.4 °F 60.8 °F 88% 29.89 in 10.0 mi NNW 9.2 mph - N/A   Clear
10:33 PM 64.4 °F 60.8 °F 88% 29.89 in 10.0 mi NNW 9.2 mph - N/A   Clear
10:54 PM 64.4 °F 60.8 °F 88% 29.89 in 4.0 mi NNW 10.4 mph - N/A   Clear
11:13 PM 64.4 °F 60.8 °F 88% 29.90 in 10.0 mi NNW 9.2 mph - N/A   Scattered Clouds
11:33 PM 64.4 °F 60.8 °F 88% 29.89 in 7.0 mi NNW 8.1 mph - N/A   Clear
11:54 PM 64.4 °F 60.8 °F 88% 29.89 in 7.0 mi NW 8.1 mph - N/A   Scattered Clouds